This demonstration page uses our WeatherBlox Daily Observations layout. Learn more.

Left ArrowRight Arrow

Hourly Observations for March 9, 2019

Temp ( °F °C ) Dew Point ( °F °C ) Humidity (%) Winds ( mph kmh ) Pressure ( in mb ) Visibility ( mi km ) Precip ( " mm )
6:30 am 06:30 Cloudy with Mist and Fog 32 0 30 -1 93 93 E 7 11 30.09 1019 4 6 N/A
6:45 am 06:45 Cloudy with Mist and Fog 32 0 30 -1 93 93 E 7 11 30.09 1019 4 6 N/A
7:45 am 07:45 Cloudy with Mist and Fog 34 1 30 -1 87 87 E 9 15 30.06 1018 4 6 N/A
8:45 am 08:45 Cloudy with Mist and Fog 36 2 32 0 87 87 E 12 19 30.04 1017 4 6 N/A
9:45 am 09:45 Cloudy 36 2 32 0 87 87 ESE 14 22 30.00 1016 7 11 N/A
10:45 am 10:45 Cloudy 37 3 34 1 87 87 ESE 14 22 29.97 1015 7 11 N/A
11:45 am 11:45 Cloudy with Mist and Fog 37 3 34 1 87 87 ESE 12 19 29.96 1014 5 8 N/A
12:45 pm 12:45 Cloudy with Light Rain 39 4 36 2 87 87 ESE 14 22 29.84 1011 5 8 N/A
1:45 pm 13:45 Cloudy with Light Rain 39 4 37 3 93 93 SE 16 26 29.76 1008 3 5 N/A
2:25 pm 14:25 Cloudy with Thunderstorms 39 4 37 3 93 93 ESE 16 26 29.71 1006 4 6 N/A
2:49 pm 14:49 Cloudy with Thunderstorms 39 4 37 3 93 93 ESE 17 28 29.67 1005 5 8 N/A
3:01 pm 15:01 Cloudy with Thunderstorms 41 5 37 3 87 87 ESE 16 26 29.70 1006 2 3 N/A
3:07 pm 15:07 Cloudy with Thunderstorms 41 5 37 3 87 87 ESE 9 15 29.73 1007 2 2 N/A
3:32 pm 15:32 Cloudy with Light Rain 41 5 39 4 93 93 E 6 9 29.70 1006 4 6 N/A
3:48 pm 15:48 Cloudy with Light Rain 41 5 39 4 93 93 E 13 20 29.68 1005 5 8 N/A
4:51 pm 16:51 Cloudy with Light Rain 45 7 41 5 87 87 SE 9 15 29.63 1003 5 8 N/A
5:02 pm 17:02 Cloudy with Light Rain 45 7 41 5 87 87 SE 12 19 29.61 1003 3 5 N/A
5:36 pm 17:36 Cloudy with Light Rain 46 8 43 6 87 87 ESE 17 28 29.56 1001 3 5 N/A
5:52 pm 17:52 Cloudy with Light Rain 46 8 45 7 93 93 SE 16 26 29.50 999 4 6 N/A
6:35 pm 18:35 Cloudy 50 10 48 9 94 94 S 13 20 29.50 999 7 11 N/A
6:49 pm 18:49 Cloudy 54 12 50 10 88 88 S 15 24 29.48 998 7 11 N/A
7:53 pm 19:53 Mostly Cloudy 54 12 50 10 88 88 S 13 20 29.48 998 10 16 N/A
8:55 pm 20:55 Partly Cloudy 55 13 50 10 82 82 S 15 24 29.48 998 10 16 N/A
9:52 pm 21:52 Partly Cloudy 55 13 50 10 82 82 S 14 22 29.49 999 10 16 N/A

Powered by AerisWeather